Home   Weather   Elmshorn   Past weeks

Flag for Germany Past Weather in Elmshorn, Schleswig-Holstein, Germany — Yesterday and Last 2 Weeks

Now
59 °F

Passing clouds.


Feels Like: 60 °F
Forecast: 57 / 67 °F
Wind: 3 mph from Southwest

Location: Hamburg-Fuhlsbuettel

Current Time: Sep 27, 2016 at 9:09:49 PM

Latest Report: Sep 27, 2016 at 8:50 PM


Visibility: N/A

Pressure: 30.24 "Hg

Humidity: 82%

Dew Point: 54 °F

Location of ElmshornLocation

Past Weather in Elmshorn — Graph

°F

Elmshorn Temperature Yesterday

Maximum temperature yesterday: 68 °F (at 1:50 PM)
Minimum temperature yesterday: 54 °F (at 2:20 AM)
Average temperature yesterday: 61 °F

High & Low Weather Summary for the Past Weeks

 TemperatureHumidityPressure
High86 °F (Sep 13, 1:50 PM)100% (Sep 16, 9:20 PM)30.30 "Hg (Sep 16, 9:20 PM)
Low46 °F (Sep 19, 3:20 AM)29% (Sep 13, 5:20 PM)29.89 "Hg (Sep 16, 3:50 AM)
Average63 °F75%30.09 "Hg
* Reported Sep 12 7:20 PM — Sep 27 7:50 PM, Elmshorn, Weather by CustomWeather, © 2016

Note: Actual official high and low records may vary slightly from our data, if they occured in-between our weather recording intervals... More about our weather records

Advertising

Elmshorn Weather History for the Previous 24 Hours

Scroll right to see more
 ConditionsComfort  
Time TempWeatherWind HumidityBarometerVisibility
7:50 PM
Tue, Sep 27
59 °FClear.3 mph82%30.24 "Hg10 mi
7:20 PM61 °FClear.3 mph77%30.27 "Hg10 mi
6:50 PM63 °FSunny.3 mph73%30.24 "Hg10 mi
6:20 PM64 °FSunny.5 mph64%30.24 "Hg10 mi
5:50 PM66 °FSunny.9 mph56%30.24 "Hg10 mi
5:20 PM68 °FPassing clouds.8 mph53%30.24 "HgN/A
4:50 PM70 °FPassing clouds.8 mph50%30.24 "HgN/A
4:20 PM70 °FPassing clouds.6 mph53%30.27 "HgN/A
3:50 PM70 °FPassing clouds.8 mph50%30.27 "HgN/A
3:20 PM70 °FPassing clouds.7 mph46%30.27 "HgN/A
2:50 PM70 °FPassing clouds.7 mph46%30.27 "HgN/A
2:20 PM68 °FPassing clouds.5 mph53%30.27 "HgN/A
1:50 PM70 °FPassing clouds.2 mph50%30.30 "HgN/A
1:20 PM68 °FPassing clouds.3 mph56%30.30 "HgN/A
12:50 PM68 °FPassing clouds.3 mph56%30.30 "HgN/A
12:20 PM68 °FPassing clouds.3 mph53%30.30 "HgN/A
11:50 AM66 °FPassing clouds.3 mph60%30.27 "HgN/A
11:20 AM66 °FPassing clouds.2 mph64%30.30 "HgN/A
10:50 AM64 °FSunny.2 mph73%30.30 "Hg10 mi
10:20 AM63 °FSunny.2 mph83%30.30 "Hg10 mi
9:50 AM61 °FSunny.1 mph88%30.30 "Hg10 mi
9:20 AM57 °FSunny.1 mph94%30.30 "Hg10 mi
8:50 AM55 °FFog.1 mph94%30.27 "HgN/A
8:20 AM52 °FFog.No wind100%30.27 "HgN/A
7:50 AM50 °FCool.No wind100%30.27 "Hg5 mi
7:20 AM50 °FFog.3 mph100%30.27 "HgN/A
6:50 AM50 °FFog.6 mph100%30.27 "HgN/A
6:20 AM50 °FFog.2 mph94%30.24 "Hg1 mi
5:50 AM50 °FFog.3 mph100%30.24 "Hg2 mi
5:20 AM48 °FFog.2 mph100%30.24 "Hg1 mi
4:50 AM52 °FCool.2 mph100%30.24 "HgN/A
4:20 AM54 °FCool.1 mph100%30.24 "HgN/A
3:50 AM55 °FFog.1 mph94%30.24 "HgN/A
3:20 AM54 °FClear.3 mph100%30.24 "Hg10 mi
2:50 AM57 °FClear.7 mph94%30.24 "Hg10 mi
2:20 AM57 °FLight rain. Passing clouds.2 mph94%30.24 "HgN/A
1:50 AM57 °FLight rain. Clear.2 mph94%30.24 "HgN/A
1:20 AM57 °FClear.2 mph94%30.24 "Hg10 mi
12:50 AM57 °FClear.2 mph94%30.24 "Hg10 mi
12:20 AM57 °FClear.6 mph94%30.21 "Hg10 mi
11:50 PM
Mon, Sep 26
59 °FPassing clouds.3 mph94%30.21 "HgN/A
11:20 PM59 °FClear.3 mph94%30.21 "Hg10 mi
10:50 PM59 °FClear.1 mph94%30.21 "Hg10 mi
10:20 PM61 °FLight rain. Passing clouds.3 mph88%30.21 "HgN/A
9:50 PM61 °FLight rain. Passing clouds.3 mph88%30.24 "HgN/A
9:20 PM61 °FLight rain. Passing clouds.2 mph88%30.24 "HgN/A
Weather by CustomWeather, © 2016

See weather overviewHow to use our weather pages